Regional Weather Roundup
Issued by NWS Albany, NY

Home | Current Version | Previous Version | Text Only | Print | Product List | Glossary On
Versions: 1 2 3 4 5 6 7 8 9 10 11 12 13 14 15 16 17 18 19 20 21 22 23 24 25 26 27
000
ASUS41 KALY 221110
RWRALY

NEW YORK STATE HOURLY WEATHER ROUNDUP
NATIONAL WEATHER SERVICE ALBANY NY
700 AM EDT SUN APR 22 2018

NOTE: "FAIR" INDICATES FEW OR NO CLOUDS BELOW 12,000 FEET WITH NO
SIGNIFICANT WEATHER AND/OR NO OBSTRUCTIONS TO VISIBILITY.

NYZ032-033-038>043-046>054-057>066-NYZ062>081-082-084-221200-
EAST


CITY           SKY/WX    TMP DP  RH WIND       PRES   REMARKS
ALBANY         FAIR      31  21  66 CALM      30.40R
GLENS FALLS    FAIR      26  24  92 CALM      30.39R
POUGHKEEPSIE   FAIR      30  24  78 CALM      30.40R
NEWBURGH       CLEAR     32  25  74 CALM      30.40R
MONTGOMERY     FAIR      29  24  82 SW3       30.39R
WHITE PLAINS   FAIR      38  25  59 NW7       30.38R WCI  33
ISLIP          FAIR      41  28  60 CALM      30.39R
NEW YORK CITY  FAIR      47  24  40 W3        30.41R
CENTRAL PARK   FAIR      46  16  30 W3        30.43R
$$

NYZ005>009-017-018-044>046-055-056-221200-
CENTRAL


CITY           SKY/WX    TMP DP  RH WIND       PRES   REMARKS
FULTON         FAIR      29  26  89 CALM      30.41R
SYRACUSE       FAIR      30  25  81 CALM      30.41R
ROME           FAIR      26  22  84 CALM      30.43R
ELMIRA         FAIR      26  23  88 CALM      30.43R
BINGHAMTON     FAIR      33  18  53 W7        30.38R WCI  27
MONTICELLO     FAIR      28  21  75 CALM      30.40R
$$

NYZ026>034-041>043-087-221200-
NORTH


CITY           SKY/WX    TMP DP  RH WIND       PRES   REMARKS
WATERTOWN      FAIR      24  23  96 CALM      30.41R
FORT DRUM      NOT AVBL
OGDENSBURG     FAIR      29  28  98 CALM      30.41R
MASSENA        FAIR      27  25  92 CALM      30.43R
SARANAC LAKE   FAIR      20  19  96 CALM      30.34R
PLATTSBURGH    FAIR      34  20  56 CALM      30.39R
$$

NYZ001>004-010>016-019>021-085-221200-
WEST


CITY           SKY/WX    TMP DP  RH WIND       PRES   REMARKS
NIAGARA FALLS  FAIR      30  24  78 CALM      30.42R
BUFFALO        FAIR      32  26  78 SE5       30.42R WCI  27
DUNKIRK        FAIR      27  25  92 S3        30.42R
JAMESTOWN      FAIR      38  20  48 E5        30.39R WCI  34
WELLSVILLE     FAIR      30  23  75 CALM      30.40R
ROCHESTER      FAIR      32  27  81 SW6       30.42R WCI  26
PENN YAN       FAIR      33  25  72 SW6       30.41R WCI  28
$$

             KEY
       WCI = WIND CHILL INDEX
       VSB = VISIBILITY
       HX  = HEAT INDEX
$$




USA.gov is the U.S. government's official web portal to all federal, state and local government web resources and services.